KA5FVT Weather Reports


Display with metric or nautical units.
time (UTC)temp
F
wind
direction
speed
MPH
gust
MPH
rain 1hr
in
rain 24hr
in
rain mn
in
humidity
%
barometer
mb
20260906064457 80 179 0.0 0.0 0.00 0.00 0.00 90 1011.9
20260906063956 80 179 0.0 0.0 0.00 0.00 0.00 90 1011.9
20260906063456 80 179 0.0 0.0 0.00 0.00 0.00 90 1012.0
20260906062957 80 180 0.0 0.0 0.00 0.00 0.00 90 1012.1
20260906062456 80 179 0.0 0.0 0.00 0.00 0.00 90 1012.1
20260906061957 80 179 0.0 0.0 0.00 0.00 0.00 90 1012.0
20260906061456 80 179 0.0 0.0 0.00 0.00 0.00 90 1012.1
20260906060956 80 179 0.0 0.0 0.00 0.00 0.00 89 1012.1
20260906060456 80 179 0.0 0.0 0.00 0.00 0.00 89 1012.0
20260906055956 80 179 0.0 0.0 0.00 0.00 0.00 89 1012.1
20260906055456 80 179 0.0 0.0 0.00 0.00 0.00 89 1012.1
20260906054956 80 180 0.0 0.0 0.00 0.00 0.00 89 1012.0
20260906054500 80 179 0.0 0.0 0.00 0.00 0.00 89 1012.1
20260906053956 80 180 0.0 0.0 0.00 0.00 0.00 89 1012.1
20260906053456 80 179 0.0 0.0 0.00 0.00 0.00 89 1012.1
20260906052956 80 180 0.0 0.0 0.00 0.00 0.00 89 1012.1
20260906052456 80 180 0.0 0.0 0.00 0.00 0.00 89 1012.0
20260906051956 80 180 0.0 0.0 0.00 0.00 0.00 89 1012.1
20260906051457 80 179 0.0 0.0 0.00 0.00 0.00 89 1012.1
20260906050956 80 179 0.0 0.0 0.00 0.00 0.00 89 1012.1
20260906050456 80 179 0.0 0.0 0.00 0.00 0.00 88 1012.1
20260906045956 80 179 0.0 0.0 0.00 0.00 0.00 89 1012.1
20260906045456 80 179 0.0 0.0 0.00 0.00 0.00 89 1012.0
20260906044956 80 180 0.0 0.0 0.00 0.00 0.00 88 1012.0
20260906044456 80 179 0.0 0.0 0.00 0.00 0.00 88 1011.9
20260906043957 80 179 0.0 0.0 0.00 0.00 0.00 88 1011.9
20260906043456 80 179 0.0 0.0 0.00 0.00 0.00 88 1012.1
20260906042956 80 179 0.0 0.0 0.00 0.00 0.00 88 1012.2
20260906042456 80 179 0.0 0.0 0.00 0.00 0.00 88 1012.1
20260906041956 80 179 0.0 0.0 0.00 0.00 0.00 88 1012.0
20260906041456 80 179 0.0 0.0 0.00 0.00 0.00 88 1012.1
20260906040957 80 179 0.0 0.0 0.00 0.00 0.00 88 1012.0
20260906040456 80 179 0.0 0.0 0.00 0.00 0.00 88 1012.1
20260906035956 80 180 0.0 0.0 0.00 0.00 0.00 88 1012.3
20260906035456 80 179 0.0 0.0 0.00 0.00 0.00 87 1012.2
20260906034956 80 179 0.0 0.0 0.00 0.00 0.00 87 1012.2
20260906034456 80 179 0.0 0.0 0.00 0.00 0.00 87 1012.3
20260906033957 80 179 0.0 0.0 0.00 0.00 0.00 87 1012.3
20260906033456 80 180 0.0 0.0 0.00 0.00 0.00 87 1012.3
20260906032956 80 179 0.0 0.0 0.00 0.00 0.00 87 1012.2
20260906032456 80 179 0.0 0.0 0.00 0.00 0.00 87 1012.2
20260906031956 80 179 0.0 0.0 0.00 0.00 0.00 87 1012.2
20260906031456 80 179 0.0 0.0 0.00 0.00 0.00 87 1012.1
20260906030957 80 179 0.0 0.0 0.00 0.00 0.00 87 1012.1
20260906030456 80 180 0.0 0.0 0.00 0.00 0.00 87 1012.0
20260906025956 80 179 0.0 0.0 0.00 0.00 0.00 87 1011.9
20260906025456 80 179 0.0 0.0 0.00 0.00 0.00 87 1011.9
20260906024956 80 179 0.0 0.0 0.00 0.00 0.00 87 1011.9
20260906024459 80 179 0.0 0.0 0.00 0.00 0.00 87 1011.9
20260906023957 80 179 0.0 0.0 0.00 0.00 0.00 87 1011.9
20260906023456 81 180 0.0 0.0 0.00 0.00 0.00 87 1011.8
20260906022956 81 179 0.0 0.0 0.00 0.00 0.00 86 1011.7
20260906022456 81 179 0.0 0.0 0.00 0.00 0.00 86 1011.6
20260906021956 81 179 0.0 0.0 0.00 0.00 0.00 87 1011.6
20260906021456 81 179 0.0 1.0 0.00 0.00 0.00 87 1011.6
20260906020957 81 180 0.0 0.0 0.00 0.00 0.00 87 1011.5
20260906020456 81 180 0.0 0.0 0.00 0.00 0.00 87 1011.4
20260906015956 81 180 0.0 2.0 0.00 0.00 0.00 87 1011.3
20260906015456 81 132 0.0 0.0 0.00 0.00 0.00 87 1011.3
20260906014956 81 132 0.0 0.0 0.00 0.00 0.00 87 1011.3
20260906014459 81 132 0.0 0.0 0.00 0.00 0.00 87 1011.2
20260906014000 81 132 0.0 0.0 0.00 0.00 0.00 87 1011.1
20260906013456 81 132 0.0 0.0 0.00 0.00 0.00 87 1011.0
20260906012956 81 132 0.0 0.0 0.00 0.00 0.00 87 1011.0
20260906012456 81 132 0.0 1.0 0.00 0.00 0.00 87 1011.1
20260906011956 81 161 0.0 1.0 0.00 0.00 0.00 87 1011.1
20260906011456 81 161 0.0 0.0 0.00 0.00 0.00 87 1011.0
20260906011000 81 161 0.0 0.0 0.00 0.00 0.00 87 1010.9
20260906010456 81 161 0.0 2.0 0.00 0.00 0.00 87 1010.9
20260906005957 82 306 0.0 1.0 0.00 0.00 0.00 87 1010.9
20260906005456 82 306 0.0 0.0 0.00 0.00 0.00 87 1011.0
20260906004956 82 306 0.0 0.0 0.00 0.00 0.00 87 1011.2
20260906004456 82 306 0.0 0.0 0.00 0.00 0.00 86 1011.3
20260906003957 82 306 0.0 0.0 0.00 0.00 0.00 86 1011.3
20260906003456 82 306 0.0 0.0 0.00 0.00 0.00 85 1011.2
20260906002956 82 306 0.0 0.0 0.00 0.00 0.00 85 1011.3
20260906002456 83 306 0.0 0.0 0.00 0.00 0.00 84 1011.3
20260906001956 83 306 0.0 0.0 0.00 0.00 0.00 83 1011.2
20260906001456 83 306 0.0 0.0 0.00 0.00 0.00 83 1011.4
20260906001000 83 306 0.0 0.0 0.00 0.00 0.00 82 1011.4
20260906000456 84 306 0.0 0.0 0.00 0.00 0.00 80 1011.4
20260905235956 84 306 0.0 1.0 0.00 0.00 0.00 79 1011.5
20260905235456 84 306 1.0 1.0 0.00 0.00 0.00 78 1011.6
20260905234956 85 307 0.0 1.0 0.00 0.00 0.00 76 1011.7
20260905234456 85 307 0.0 2.0 0.00 0.00 0.00 75 1011.7
20260905233959 85 305 0.0 2.0 0.00 0.00 0.00 73 1011.8
20260905233457 85 255 0.0 0.0 0.00 0.00 0.00 73 1011.8
20260905232957 85 256 0.0 0.0 0.00 0.00 0.00 73 1011.8
20260905232457 86 255 0.0 0.0 0.00 0.00 0.00 73 1011.6
20260905231959 86 255 0.0 0.0 0.00 0.00 0.00 72 1011.5
20260905231456 86 255 0.0 0.0 0.00 0.00 0.00 72 1011.5
20260905230959 86 255 0.0 0.0 0.00 0.00 0.00 72 1011.6
20260905230456 86 255 0.0 0.0 0.00 0.00 0.00 72 1011.4
20260905225957 86 255 0.0 0.0 0.00 0.00 0.00 71 1011.3
20260905225459 86 255 0.0 0.0 0.00 0.00 0.00 71 1011.3
20260905224956 86 255 0.0 1.0 0.00 0.00 0.00 70 1011.3
20260905224456 87 255 1.0 1.0 0.00 0.00 0.00 69 1011.4
20260905223959 87 255 0.0 0.0 0.00 0.00 0.00 70 1011.5
20260905223456 87 256 0.0 1.0 0.00 0.00 0.00 69 1011.3
20260905222959 87 255 1.0 2.0 0.00 0.00 0.00 69 1011.3
20260905222456 88 173 2.0 2.0 0.00 0.00 0.00 68 1011.1
20260905221956 88 174 0.0 2.0 0.00 0.00 0.00 68 1011.2
20260905221459 88 173 0.0 2.0 0.00 0.00 0.00 68 1011.1
20260905220956 88 169 0.0 2.0 0.00 0.00 0.00 67 1011.0
20260905220456 88 169 0.0 1.0 0.00 0.00 0.00 68 1011.0
20260905215956 88 169 0.0 1.0 0.00 0.00 0.00 67 1010.9
20260905215456 88 169 0.0 1.0 0.00 0.00 0.00 67 1011.0
20260905214956 88 169 0.0 2.0 0.00 0.00 0.00 67 1010.9
20260905214456 88 169 1.0 2.0 0.00 0.00 0.00 67 1010.7
20260905213956 88 169 1.0 4.0 0.00 0.00 0.00 67 1010.9
20260905213456 89 157 2.0 2.0 0.00 0.00 0.00 67 1010.9
20260905212956 89 151 1.0 2.0 0.00 0.00 0.00 67 1011.0
20260905212500 89 148 1.0 2.0 0.00 0.00 0.00 66 1011.2
20260905211956 90 148 1.0 2.0 0.00 0.00 0.00 66 1011.3
20260905211457 90 148 0.0 2.0 0.00 0.00 0.00 65 1011.2
20260905210959 91 163 2.0 4.0 0.00 0.00 0.00 63 1011.2
20260905210456 92 134 1.0 4.0 0.00 0.00 0.00 62 1011.1
20260905205956 93 162 1.0 2.0 0.00 0.00 0.00 61 1011.2
20260905205459 93 162 0.0 4.0 0.00 0.00 0.00 59 1011.1
20260905204956 94 122 0.0 2.0 0.00 0.00 0.00 58 1011.1
20260905204456 95 190 0.0 1.0 0.00 0.00 0.00 59 1011.0
20260905203957 95 190 0.0 1.0 0.00 0.00 0.00 58 1011.0
20260905203456 95 190 0.0 2.0 0.00 0.00 0.00 57 1011.0
20260905202956 96 190 1.0 2.0 0.00 0.00 0.00 54 1011.2
20260905202459 96 190 0.0 2.0 0.00 0.00 0.00 52 1011.3
20260905202000 96 190 0.0 1.0 0.00 0.00 0.00 53 1011.3
20260905201456 96 190 0.0 1.0 0.00 0.00 0.00 55 1011.3
20260905200956 95 190 0.0 1.0 0.00 0.00 0.00 56 1011.3
20260905200456 95 190 1.0 2.0 0.00 0.00 0.00 54 1011.4
20260905195956 95 190 1.0 2.0 0.00 0.00 0.00 55 1011.5
20260905195456 95 190 0.0 1.0 0.00 0.00 0.00 56 1011.6
20260905194959 95 190 0.0 1.0 0.00 0.00 0.00 56 1011.6
20260905194459 94 190 1.0 2.0 0.00 0.00 0.00 57 1011.6
20260905193959 94 191 0.0 2.0 0.00 0.00 0.00 58 1011.7
20260905193456 94 191 0.0 0.0 0.00 0.00 0.00 60 1011.7
20260905192956 94 191 0.0 0.0 0.00 0.00 0.00 58 1011.8
20260905192456 94 191 0.0 0.0 0.00 0.00 0.00 58 1012.0
20260905191959 95 191 0.0 0.0 0.00 0.00 0.00 57 1012.0
20260905191456 95 191 0.0 1.0 0.00 0.00 0.00 56 1012.1
20260905190956 95 191 0.0 2.0 0.00 0.00 0.00 55 1012.1
20260905190459 95 191 0.0 1.0 0.00 0.00 0.00 56 1012.1
20260905185959 95 191 0.0 2.0 0.00 0.00 0.00 57 1012.0
20260905185456 95 192 0.0 2.0 0.00 0.00 0.00 57 1012.1
20260905184956 95 192 0.0 2.0 0.00 0.00 0.00 57 1012.1
20260905184456 95 192 0.0 2.0 0.00 0.00 0.00 61 1012.1
20260905183956 94 192 0.0 2.0 0.00 0.00 0.00 60 1012.3
20260905183459 94 192 0.0 2.0 0.00 0.00 0.00 58 1012.4
20260905182956 94 225 1.0 2.0 0.00 0.00 0.00 59 1012.5
20260905182500 93 269 1.0 2.0 0.00 0.00 0.00 59 1012.6
20260905181956 93 263 0.0 2.0 0.00 0.00 0.00 60 1012.8
20260905181456 94 263 1.0 2.0 0.00 0.00 0.00 57 1012.8
20260905180956 94 263 0.0 1.0 0.00 0.00 0.00 58 1012.9
20260905180459 94 263 0.0 2.0 0.00 0.00 0.00 58 1013.2
20260905175959 94 262 0.0 2.0 0.00 0.00 0.00 58 1013.0
20260905175456 94 261 1.0 3.0 0.00 0.00 0.00 58 1013.2
20260905174956 93 254 0.0 1.0 0.00 0.00 0.00 61 1013.4
20260905174457 92 254 0.0 2.0 0.00 0.00 0.00 61 1013.4
20260905173956 92 254 1.0 2.0 0.00 0.00 0.00 61 1013.4
20260905173456 92 254 0.0 2.0 0.00 0.00 0.00 63 1013.6
20260905172956 91 254 0.0 2.0 0.00 0.00 0.00 62 1013.7
20260905172459 91 253 2.0 2.0 0.00 0.00 0.00 63 1013.6
20260905171957 90 239 0.0 2.0 0.00 0.00 0.00 66 1013.6
20260905171456 90 235 0.0 1.0 0.00 0.00 0.00 66 1013.6
20260905170956 90 235 0.0 2.0 0.00 0.00 0.00 66 1013.7
20260905170456 90 229 1.0 2.0 0.00 0.00 0.00 66 1013.8
20260905165956 91 229 0.0 2.0 0.00 0.00 0.00 66 1013.9
20260905165456 91 229 0.0 2.0 0.00 0.00 0.00 65 1013.9
20260905164957 91 229 2.0 2.0 0.00 0.00 0.00 65 1013.8
20260905164456 91 205 0.0 2.0 0.00 0.00 0.00 66 1013.7
20260905163956 90 205 0.0 2.0 0.00 0.00 0.00 69 1013.8
20260905163456 90 205 0.0 2.0 0.00 0.00 0.00 68 1013.9
20260905162956 89 263 0.0 1.0 0.00 0.00 0.00 70 1013.9
20260905162456 88 263 0.0 0.0 0.00 0.00 0.00 73 1013.9
20260905161956 88 263 0.0 0.0 0.00 0.00 0.00 74 1013.9
20260905161456 87 263 0.0 0.0 0.00 0.00 0.00 70 1013.8
20260905160957 87 263 0.0 0.0 0.00 0.00 0.00 76 1013.9
20260905160456 87 263 0.0 1.0 0.00 0.00 0.00 75 1013.9
20260905155956 87 263 0.0 1.0 0.00 0.00 0.00 75 1013.9
20260905155456 87 263 0.0 0.0 0.00 0.00 0.00 75 1013.9
20260905154956 87 263 0.0 0.0 0.00 0.00 0.00 75 1014.0
20260905154456 87 263 0.0 0.0 0.00 0.00 0.00 76 1014.0
20260905153956 87 263 0.0 2.0 0.00 0.00 0.00 76 1013.8
20260905153456 86 263 0.0 1.0 0.00 0.00 0.00 77 1013.8
20260905152957 86 263 0.0 0.0 0.00 0.00 0.00 79 1014.0
20260905152456 86 263 0.0 0.0 0.00 0.00 0.00 79 1013.8
20260905151959 86 263 0.0 0.0 0.00 0.00 0.00 80 1014.0
20260905151456 85 263 0.0 2.0 0.00 0.00 0.00 81 1014.1
20260905150956 85 231 0.0 0.0 0.00 0.00 0.00 82 1013.9
20260905150456 85 231 0.0 0.0 0.00 0.00 0.00 83 1014.0
20260905145956 85 231 0.0 2.0 0.00 0.00 0.00 84 1014.0
20260905145456 85 200 0.0 0.0 0.00 0.00 0.00 85 1014.0
20260905144957 84 200 0.0 1.0 0.00 0.00 0.00 85 1014.0
20260905144459 84 186 0.0 0.0 0.00 0.00 0.00 85 1013.9
20260905143956 84 186 0.0 0.0 0.00 0.00 0.00 87 1013.8
20260905143456 83 186 0.0 0.0 0.00 0.00 0.00 87 1013.7
20260905142957 83 186 0.0 0.0 0.00 0.00 0.00 88 1013.7
20260905142456 83 186 0.0 0.0 0.00 0.00 0.00 88 1013.9
20260905141956 82 187 0.0 0.0 0.00 0.00 0.00 90 1013.7
20260905141457 82 188 0.0 2.0 0.00 0.00 0.00 90 1013.8
20260905140956 82 188 0.0 0.0 0.00 0.00 0.00 91 1013.8
20260905140456 81 188 0.0 1.0 0.00 0.00 0.00 91 1013.8
20260905135959 81 188 0.0 0.0 0.00 0.00 0.00 92 1013.8
20260905135456 81 188 0.0 0.0 0.00 0.00 0.00 93 1013.7
20260905134956 80 188 0.0 0.0 0.00 0.00 0.00 93 1013.8
20260905134459 80 188 0.0 0.0 0.00 0.00 0.00 94 1013.8
20260905133956 79 188 0.0 0.0 0.00 0.00 0.00 95 1013.7
20260905133456 79 188 0.0 0.0 0.00 0.00 0.00 95 1013.6
20260905132956 79 188 0.0 0.0 0.00 0.00 0.00 95 1013.6
20260905132456 79 188 0.0 0.0 0.00 0.00 0.00 95 1013.5
20260905131956 78 188 0.0 0.0 0.00 0.00 0.00 95 1013.6
20260905131459 78 188 0.0 0.0 0.00 0.00 0.00 95 1013.6
20260905130956 78 188 0.0 0.0 0.00 0.00 0.00 95 1013.5
20260905130456 78 188 0.0 0.0 0.00 0.00 0.00 95 1013.5
20260905125956 78 188 0.0 0.0 0.00 0.00 0.00 95 1013.5
20260905125456 78 188 0.0 0.0 0.00 0.00 0.00 95 1013.5
20260905124956 78 188 0.0 0.0 0.00 0.00 0.00 95 1013.4
20260905124456 77 188 0.0 0.0 0.00 0.00 0.00 95 1013.4
20260905123956 77 188 0.0 0.0 0.00 0.00 0.00 95 1013.3
20260905123459 77 188 0.0 0.0 0.00 0.00 0.00 95 1013.3
20260905122956 77 188 0.0 0.0 0.00 0.00 0.00 94 1013.3
20260905122456 77 188 0.0 0.0 0.00 0.00 0.00 94 1013.2
20260905121956 77 188 0.0 0.0 0.00 0.00 0.00 94 1013.0
20260905121459 77 188 0.0 0.0 0.00 0.00 0.00 94 1013.0
20260905120956 78 188 0.0 0.0 0.00 0.00 0.00 94 1012.8
20260905120459 78 188 0.0 0.0 0.00 0.00 0.00 94 1012.9
20260905115956 78 188 0.0 0.0 0.00 0.00 0.00 94 1012.9
20260905115456 78 188 0.0 0.0 0.00 0.00 0.00 94 1012.9
20260905114956 78 188 0.0 0.0 0.00 0.00 0.00 94 1012.9
20260905114456 78 188 0.0 0.0 0.00 0.00 0.00 94 1012.8
20260905113956 78 188 0.0 0.0 0.00 0.00 0.00 94 1012.8
20260905113459 78 188 0.0 0.0 0.00 0.00 0.00 94 1012.7
20260905112956 78 188 0.0 0.0 0.00 0.00 0.00 94 1012.7
20260905112456 78 188 0.0 0.0 0.00 0.00 0.00 94 1012.6
20260905111956 78 188 0.0 0.0 0.00 0.00 0.00 94 1012.6
20260905111456 78 188 0.0 0.0 0.00 0.00 0.00 94 1012.5
20260905110956 78 188 0.0 0.0 0.00 0.00 0.00 94 1012.5
20260905110456 78 188 0.0 0.0 0.00 0.00 0.00 94 1012.5
20260905105956 78 188 0.0 0.0 0.00 0.00 0.00 94 1012.4
20260905105456 78 188 0.0 0.0 0.00 0.00 0.00 94 1012.3
20260905104956 78 188 0.0 0.0 0.00 0.00 0.00 94 1012.3
20260905104457 78 188 0.0 0.0 0.00 0.00 0.00 94 1012.2
20260905103956 78 188 0.0 0.0 0.00 0.00 0.00 94 1012.4
20260905103456 78 188 0.0 0.0 0.00 0.00 0.00 94 1012.3
20260905102956 78 188 0.0 0.0 0.00 0.00 0.00 94 1012.3
20260905102459 78 188 0.0 0.0 0.00 0.00 0.00 94 1012.3
20260905101956 78 188 0.0 0.0 0.00 0.00 0.00 94 1012.3
20260905101456 78 188 0.0 0.0 0.00 0.00 0.00 94 1012.3
20260905100956 78 188 0.0 0.0 0.00 0.01 0.00 94 1012.3
20260905100456 78 188 0.0 0.0 0.00 0.01 0.00 94 1012.2
20260905095956 78 188 0.0 0.0 0.00 0.01 0.00 94 1012.3
20260905095459 78 188 0.0 0.0 0.00 0.01 0.00 94 1012.2
20260905094956 78 188 0.0 0.0 0.00 0.01 0.00 94 1012.2
20260905094456 78 188 0.0 0.0 0.00 0.01 0.00 93 1012.2
20260905093956 78 188 0.0 0.0 0.00 0.01 0.00 93 1012.1
20260905093456 78 188 0.0 0.0 0.00 0.01 0.00 93 1012.2
20260905092956 78 188 0.0 0.0 0.00 0.01 0.00 93 1012.2
20260905092456 78 188 0.0 0.0 0.00 0.01 0.00 93 1012.2
20260905091959 78 188 0.0 0.0 0.00 0.01 0.00 93 1012.2
20260905091456 78 188 0.0 0.0 0.00 0.01 0.00 93 1012.2
20260905090956 78 188 0.0 0.0 0.00 0.01 0.00 93 1012.2
20260905090456 78 188 0.0 0.0 0.00 0.01 0.00 93 1012.2
20260905090000 79 188 0.0 0.0 0.00 0.01 0.00 93 1012.2
20260905085456 79 188 0.0 0.0 0.00 0.01 0.00 93 1012.2
20260905084956 79 188 0.0 0.0 0.00 0.01 0.00 92 1012.2
20260905084456 79 188 0.0 0.0 0.00 0.01 0.00 92 1012.2
20260905083956 79 188 0.0 0.0 0.00 0.01 0.00 92 1012.2
20260905083456 79 188 0.0 0.0 0.00 0.01 0.00 92 1012.2
20260905082956 79 188 0.0 0.0 0.00 0.01 0.00 92 1012.2
20260905082456 79 188 0.0 0.0 0.00 0.01 0.00 92 1012.1
20260905081956 79 188 0.0 0.0 0.00 0.01 0.00 92 1012.2
20260905081456 79 188 0.0 0.0 0.00 0.01 0.00 92 1012.1
20260905080956 79 188 0.0 0.0 0.00 0.01 0.00 92 1012.1
20260905080456 79 188 0.0 0.0 0.00 0.01 0.00 92 1012.2
20260905075956 79 188 0.0 0.0 0.00 0.01 0.00 92 1012.1
20260905075456 79 188 0.0 0.0 0.00 0.01 0.00 92 1012.2
20260905074956 79 188 0.0 0.0 0.00 0.01 0.00 92 1012.3
20260905074456 79 188 0.0 0.0 0.00 0.01 0.00 91 1012.4
20260905073956 79 188 0.0 0.0 0.00 0.01 0.00 91 1012.5
20260905073456 79 188 0.0 0.0 0.00 0.01 0.00 91 1012.4
20260905072956 79 188 0.0 0.0 0.00 0.01 0.00 91 1012.5
20260905072456 79 188 0.0 0.0 0.00 0.01 0.00 91 1012.6
20260905071956 80 188 0.0 0.0 0.00 0.01 0.00 91 1012.7
20260905071457 80 188 0.0 0.0 0.00 0.01 0.00 91 1012.7
20260905070956 80 188 0.0 0.0 0.00 0.01 0.00 90 1012.6
20260905070456 80 188 0.0 0.0 0.00 0.01 0.00 90 1012.6
20260905065956 80 188 0.0 0.0 0.00 0.01 0.00 90 1012.6
20260905065456 80 188 0.0 0.0 0.00 0.01 0.00 90 1012.6
20260905064956 80 188 0.0 0.0 0.00 0.01 0.00 90 1012.6